Location: Centerville
(32.8776°N, 96.6203°W)
Time: 02:15:10
(UTC+00:00)

Cosmos 2084 Rocket - Pass Details

Date: 17 June 2021
Orbit: 518 x 662 km, 62.8° (Epoch: 27 July)

Event Time Altitude Azimuth Distance (km) Brightness Sun altitude
Exits shadow 09:54:09 19° 183° (S) 1,289 4.8 -15.2°
Maximum altitude 09:56:39 45° 117° (ESE) 711 4.0 -14.8°
Drops below altitude 10° 10:00:24 10° 44° (NE) 1,755 7.3 -14.2°
Sets 10:02:39 0° 38° (NE) 2,656 8.6 -13.9°
